Location: Katherine
(14.4670°S, 132.2670°E)
Time: 10:13:37
(UTC+09:30)

ISS - Pass Details

Date: 23 June 2018
Orbit: 402 x 407 km, 51.6° (Epoch: 25 June)

Event Time Altitude Azimuth Distance (km) Brightness Sun altitude
Exits shadow 06:02:54 15° 305° (NW) 1,181 -1.8 -14.7°
Drops below altitude 10° 06:04:53 10° 342° (NNW) 1,455 -1.0 -14.3°
Sets 06:07:34 0° 6° (N) 2,308 0.4 -13.7°
